SWA2522 PHKO-PHNL

Flight info

Callsign SWA2522
Flight time 0h 32m
Altitude 20000
Route KOA V20 HOKLA JULLE5
Aircraft B738/M-SDE2E3FGHIRWXY/LB1

Departure

Time 2026-04-22 18:51
Airport Ellison Onizuka Kona International Airport at Keāhole (PHKO)

Arrival

Time 2026-04-22 19:24
Airport Daniel K. Inouye International Airport (PHNL)
Time Latitude Longitude Altitude Speed Heading
2026-04-22 18:26 19.73763 -156.04199 45 ft 0 kts 136°
2026-04-22 18:39 19.73769 -156.04205 45 ft 3 kts 136°
2026-04-22 18:40 19.73784 -156.04220 41 ft 3 kts 136°
2026-04-22 18:40 19.73798 -156.04235 39 ft 3 kts 136°
2026-04-22 18:40 19.73813 -156.04250 39 ft 3 kts 136°
2026-04-22 18:40 19.73817 -156.04254 39 ft 1 kts 136°
2026-04-22 18:41 19.73820 -156.04250 40 ft 3 kts 75°
2026-04-22 18:41 19.73834 -156.04239 42 ft 3 kts 30°
2026-04-22 18:41 19.73852 -156.04232 42 ft 3 kts 20°
2026-04-22 18:41 19.73855 -156.04231 41 ft 3 kts 54°
2026-04-22 18:42 19.73850 -156.04229 42 ft 0 kts
2026-04-22 18:42 19.73849 -156.04218 41 ft 1 kts 275°
2026-04-22 18:45 19.73850 -156.04232 42 ft 4 kts 275°
2026-04-22 18:45 19.73856 -156.04285 41 ft 9 kts 290°
2026-04-22 18:45 19.73911 -156.04307 41 ft 9 kts
2026-04-22 18:46 19.73975 -156.04302 42 ft 10 kts
2026-04-22 18:46 19.74055 -156.04295 42 ft 13 kts
2026-04-22 18:46 19.74146 -156.04287 42 ft 14 kts
2026-04-22 18:46 19.74242 -156.04278 44 ft 14 kts
2026-04-22 18:47 19.74346 -156.04268 46 ft 16 kts
2026-04-22 18:47 19.74482 -156.04256 49 ft 23 kts
2026-04-22 18:47 19.74659 -156.04241 49 ft 27 kts
2026-04-22 18:47 19.74830 -156.04224 49 ft 23 kts
2026-04-22 18:48 19.75003 -156.04209 50 ft 30 kts
2026-04-22 18:48 19.75223 -156.04188 45 ft 30 kts
2026-04-22 18:48 19.75345 -156.04200 44 ft 11 kts 313°
2026-04-22 18:48 19.75362 -156.04275 43 ft 10 kts 275°
2026-04-22 18:49 19.75365 -156.04312 42 ft 2 kts 274°
2026-04-22 18:49 19.75367 -156.04333 42 ft 3 kts 274°
2026-04-22 18:49 19.75369 -156.04360 41 ft 4 kts 273°
2026-04-22 18:49 19.75370 -156.04395 41 ft 6 kts 271°
2026-04-22 18:50 19.75348 -156.04437 41 ft 8 kts 190°
2026-04-22 18:50 19.75271 -156.04443 43 ft 25 kts 184°
2026-04-22 18:50 19.74801 -156.04483 46 ft 101 kts 185°
2026-04-22 18:50 19.73941 -156.04561 44 ft 145 kts 185°
2026-04-22 18:51 19.72851 -156.04664 158 ft 167 kts 186°
2026-04-22 18:51 19.71720 -156.04806 652 ft 167 kts 192°
2026-04-22 18:51 19.70702 -156.05474 855 ft 180 kts 237°
2026-04-22 18:51 19.70411 -156.06725 1329 ft 177 kts 280°
2026-04-22 18:52 19.70923 -156.07871 1927 ft 168 kts 302°
2026-04-22 18:52 19.71559 -156.08957 2408 ft 182 kts 302°
2026-04-22 18:52 19.72255 -156.10192 2698 ft 205 kts 300°
2026-04-22 18:52 19.73003 -156.11553 2967 ft 222 kts 300°
2026-04-22 18:53 19.73819 -156.13031 3168 ft 244 kts 301°
2026-04-22 18:53 19.74821 -156.14582 3463 ft 264 kts 307°
2026-04-22 18:53 19.75953 -156.16148 4071 ft 269 kts 308°
2026-04-22 18:53 19.77104 -156.17723 4798 ft 271 kts 308°
2026-04-22 18:54 19.78259 -156.19314 5486 ft 273 kts 307°
2026-04-22 18:54 19.79417 -156.20925 6187 ft 276 kts 307°
2026-04-22 18:54 19.80582 -156.22556 6898 ft 277 kts 307°
2026-04-22 18:54 19.81742 -156.24190 7625 ft 278 kts 307°
2026-04-22 18:55 19.82905 -156.25833 8388 ft 277 kts 306°
2026-04-22 18:55 19.84051 -156.27458 9231 ft 276 kts 306°
2026-04-22 18:55 19.85216 -156.29114 9939 ft 280 kts 305°
2026-04-22 18:55 19.86396 -156.30794 10440 ft 292 kts 306°
2026-04-22 18:56 19.87663 -156.32600 10612 ft 316 kts 306°
2026-04-22 18:56 19.89016 -156.34530 10798 ft 336 kts 306°
2026-04-22 18:56 19.90439 -156.36560 11213 ft 346 kts 307°
2026-04-22 18:56 19.91885 -156.38623 11823 ft 350 kts 307°
2026-04-22 18:57 19.93348 -156.40714 12418 ft 354 kts 308°
2026-04-22 18:57 19.94834 -156.42837 12988 ft 361 kts 308°
2026-04-22 18:57 19.96344 -156.44994 13554 ft 367 kts 308°
2026-04-22 18:57 19.97875 -156.47184 14139 ft 371 kts 308°
2026-04-22 18:58 19.99419 -156.49393 14744 ft 374 kts 308°
2026-04-22 18:58 20.00979 -156.51627 15338 ft 377 kts 308°
2026-04-22 18:58 20.02546 -156.53872 15970 ft 380 kts 308°
2026-04-22 18:58 20.04129 -156.56140 16570 ft 383 kts 308°
2026-04-22 18:59 20.05699 -156.58391 17168 ft 386 kts 308°
2026-04-22 18:59 20.07299 -156.60686 17820 ft 387 kts 307°
2026-04-22 18:59 20.08903 -156.62988 18464 ft 388 kts 307°
2026-04-22 18:59 20.10518 -156.65305 19012 ft 390 kts 307°
2026-04-22 19:00 20.12132 -156.67623 19606 ft 390 kts 307°
2026-04-22 19:00 20.13750 -156.69947 20041 ft 393 kts 307°
2026-04-22 19:00 20.15379 -156.72289 20082 ft 393 kts 307°
2026-04-22 19:00 20.17003 -156.74624 20102 ft 393 kts 307°
2026-04-22 19:01 20.18633 -156.76967 20116 ft 393 kts 307°
2026-04-22 19:01 20.20259 -156.79306 20117 ft 393 kts 307°
2026-04-22 19:01 20.21888 -156.81650 20115 ft 394 kts 307°
2026-04-22 19:01 20.23616 -156.83906 20107 ft 394 kts 314°
2026-04-22 19:02 20.25599 -156.85912 20117 ft 393 kts 318°
2026-04-22 19:02 20.27638 -156.87848 20111 ft 393 kts 318°
2026-04-22 19:02 20.29659 -156.89814 20108 ft 393 kts 317°
2026-04-22 19:02 20.31656 -156.91809 20107 ft 393 kts 317°
2026-04-22 19:03 20.33639 -156.93816 20108 ft 393 kts 316°
2026-04-22 19:03 20.35624 -156.95827 20109 ft 393 kts 316°
2026-04-22 19:03 20.37606 -156.97836 20109 ft 393 kts 316°
2026-04-22 19:03 20.39588 -156.99845 20109 ft 393 kts 316°
2026-04-22 19:04 20.41572 -157.01854 20109 ft 393 kts 316°
2026-04-22 19:04 20.43554 -157.03863 20111 ft 393 kts 316°
2026-04-22 19:04 20.45534 -157.05869 20116 ft 393 kts 316°
2026-04-22 19:04 20.47515 -157.07876 20123 ft 393 kts 316°
2026-04-22 19:05 20.49499 -157.09888 20129 ft 393 kts 316°
2026-04-22 19:05 20.51480 -157.11897 20131 ft 393 kts 316°
2026-04-22 19:05 20.53431 -157.13877 20116 ft 379 kts 316°
2026-04-22 19:05 20.55305 -157.15781 20059 ft 367 kts 316°
2026-04-22 19:06 20.57144 -157.17648 19785 ft 362 kts 317°
2026-04-22 19:06 20.58966 -157.19500 19406 ft 361 kts 317°
2026-04-22 19:06 20.60779 -157.21343 19035 ft 358 kts 317°
2026-04-22 19:07 20.64369 -157.24994 18198 ft 356 kts 317°
2026-04-22 19:07 20.66133 -157.26788 17766 ft 354 kts 317°
2026-04-22 19:07 20.67936 -157.28637 17246 ft 355 kts 317°
2026-04-22 19:07 20.69705 -157.30460 16824 ft 353 kts 317°
2026-04-22 19:08 20.71470 -157.32283 16332 ft 353 kts 317°
2026-04-22 19:08 20.73236 -157.34107 15889 ft 352 kts 317°
2026-04-22 19:08 20.74994 -157.35923 15483 ft 351 kts 317°
2026-04-22 19:08 20.76742 -157.37729 15087 ft 349 kts 317°
2026-04-22 19:09 20.77896 -157.38921 14830 ft 348 kts 317°
2026-04-22 19:09 20.80221 -157.41323 14283 ft 346 kts 317°
2026-04-22 19:09 20.81368 -157.42508 14008 ft 346 kts 318°
2026-04-22 19:09 20.83096 -157.44294 13586 ft 345 kts 317°
2026-04-22 19:10 20.84816 -157.46072 13169 ft 343 kts 317°
2026-04-22 19:10 20.86523 -157.47837 12772 ft 341 kts 317°
2026-04-22 19:10 20.88221 -157.49594 12381 ft 338 kts 317°
2026-04-22 19:10 20.89905 -157.51337 11998 ft 336 kts 316°
2026-04-22 19:11 20.91580 -157.53071 11621 ft 334 kts 316°
2026-04-22 19:11 20.93241 -157.54791 11242 ft 331 kts 316°
2026-04-22 19:11 20.94888 -157.56499 10870 ft 329 kts 315°
2026-04-22 19:11 20.96254 -157.58430 10504 ft 326 kts 294°
2026-04-22 19:12 20.97016 -157.60630 10398 ft 307 kts 289°
2026-04-22 19:12 20.97672 -157.62716 10264 ft 292 kts 288°
2026-04-22 19:12 20.98297 -157.64727 10143 ft 278 kts 288°
2026-04-22 19:12 20.98896 -157.66649 10022 ft 267 kts 288°
2026-04-22 19:13 20.99475 -157.68493 9823 ft 259 kts 288°
2026-04-22 19:13 21.00045 -157.70302 9582 ft 254 kts 289°
2026-04-22 19:13 21.00617 -157.72111 9221 ft 262 kts 289°
2026-04-22 19:13 21.01213 -157.73991 8815 ft 271 kts 289°
2026-04-22 19:14 21.01833 -157.75947 8169 ft 284 kts 289°
2026-04-22 19:14 21.02481 -157.77985 7557 ft 295 kts 290°
2026-04-22 19:14 21.03151 -157.80089 6952 ft 301 kts 290°
2026-04-22 19:14 21.03823 -157.82210 6337 ft 301 kts 290°
2026-04-22 19:15 21.04489 -157.84312 5845 ft 296 kts 290°
2026-04-22 19:15 21.05149 -157.86389 5346 ft 292 kts 290°
2026-04-22 19:15 21.05797 -157.88431 4943 ft 286 kts 289°
2026-04-22 19:15 21.06426 -157.90417 4589 ft 278 kts 289°
2026-04-22 19:16 21.07030 -157.92322 4530 ft 261 kts 290°
2026-04-22 19:16 21.07586 -157.94121 4517 ft 251 kts 285°
2026-04-22 19:16 21.07833 -157.95992 4533 ft 258 kts 276°
2026-04-22 19:16 21.08042 -157.97925 4544 ft 264 kts 281°
2026-04-22 19:17 21.08427 -157.99846 4536 ft 263 kts 287°
2026-04-22 19:17 21.08989 -158.01704 4539 ft 262 kts 292°
2026-04-22 19:17 21.09699 -158.03501 4552 ft 261 kts 296°
2026-04-22 19:17 21.10530 -158.05225 4560 ft 261 kts 301°
2026-04-22 19:18 21.11477 -158.06883 4270 ft 260 kts 305°
2026-04-22 19:18 21.12523 -158.08434 4014 ft 253 kts 310°
2026-04-22 19:18 21.13635 -158.09838 3821 ft 242 kts 315°
2026-04-22 19:18 21.14830 -158.11055 3720 ft 234 kts 329°
2026-04-22 19:19 21.16351 -158.11532 3616 ft 228 kts
2026-04-22 19:19 21.17841 -158.11071 3532 ft 225 kts 34°
2026-04-22 19:19 21.19021 -158.09978 3480 ft 225 kts 46°
2026-04-22 19:19 21.20074 -158.08756 3352 ft 220 kts 52°
2026-04-22 19:20 21.20999 -158.07465 3128 ft 219 kts 54°
2026-04-22 19:20 21.21904 -158.06163 2913 ft 217 kts 54°
2026-04-22 19:20 21.22812 -158.04873 2677 ft 216 kts 53°
2026-04-22 19:20 21.23717 -158.03592 2460 ft 215 kts 53°
2026-04-22 19:21 21.24611 -158.02325 2254 ft 211 kts 53°
2026-04-22 19:21 21.25491 -158.01079 1981 ft 208 kts 53°
2026-04-22 19:21 21.26352 -157.99859 1706 ft 201 kts 53°
2026-04-22 19:21 21.27168 -157.98703 1427 ft 187 kts 53°
2026-04-22 19:22 21.27924 -157.97633 1179 ft 173 kts 52°
2026-04-22 19:22 21.28610 -157.96660 995 ft 156 kts 53°
2026-04-22 19:22 21.29247 -157.95759 756 ft 146 kts 53°
2026-04-22 19:22 21.29880 -157.94882 493 ft 150 kts 53°
2026-04-22 19:23 21.30512 -157.93987 336 ft 151 kts 55°
2026-04-22 19:23 21.31125 -157.93105 139 ft 148 kts 55°
2026-04-22 19:23 21.31737 -157.92231 25 ft 134 kts 52°
2026-04-22 19:23 21.32166 -157.91623 26 ft 73 kts 53°
2026-04-22 19:24 21.32391 -157.91383 25 ft 22 kts 24°
2026-04-22 19:24 21.32463 -157.91354 25 ft 7 kts 17°
2026-04-22 19:24 21.32510 -157.91341 23 ft 7 kts 10°
2026-04-22 19:24 21.32570 -157.91328 23 ft 12 kts 11°
2026-04-22 19:25 21.32658 -157.91314 24 ft 13 kts 10°
2026-04-22 19:25 21.32718 -157.91308 24 ft 8 kts
2026-04-22 19:25 21.32770 -157.91329 23 ft 10 kts 295°
2026-04-22 19:25 21.32774 -157.91409 23 ft 13 kts 270°
2026-04-22 19:26 21.32774 -157.91531 23 ft 19 kts 271°
2026-04-22 19:26 21.32775 -157.91678 23 ft 20 kts 269°
2026-04-22 19:26 21.32774 -157.91824 23 ft 19 kts 270°
2026-04-22 19:26 21.32775 -157.91964 23 ft 19 kts 270°
2026-04-22 19:27 21.32775 -157.92100 23 ft 18 kts 270°
2026-04-22 19:27 21.32820 -157.92175 25 ft 11 kts
2026-04-22 19:27 21.32897 -157.92162 25 ft 12 kts
2026-04-22 19:27 21.32980 -157.92148 24 ft 11 kts
2026-04-22 19:28 21.33015 -157.92119 25 ft 4 kts 85°
2026-04-22 19:28 21.33012 -157.92091 23 ft 4 kts 97°
2026-04-22 19:28 21.33010 -157.92076 23 ft 0 kts 97°